Time,TemperatureF,DewpointF,PressureIn,WindDirection,WindDirectionDegrees,WindSpeedMPH,WindSpeedGustMPH,Humidity,HourlyPrecipIn,Conditions,Clouds,dailyrainin,SoftwareType,DateUTC
2013-10-26 00:02:00,53.2,23.4,-100.00,North,-999,-999.0,-999.0,31,-99.99,,,-99.99,,2013-10-26 07:02:00,
2013-10-26 00:07:00,53.2,23.4,-100.00,North,-999,-999.0,-999.0,31,-99.99,,,-99.99,,2013-10-26 07:07:00,
2013-10-26 00:12:00,53.2,23.4,-100.00,North,-999,-999.0,-999.0,31,-99.99,,,-99.99,,2013-10-26 07:12:00,
2013-10-26 00:17:00,53.2,23.4,-100.00,North,-999,-999.0,-999.0,31,-99.99,,,-99.99,,2013-10-26 07:17:00,
2013-10-26 00:22:00,53.2,23.3,-100.00,North,-999,-999.0,-999.0,31,-99.99,,,-99.99,,2013-10-26 07:22:00,
2013-10-26 00:27:00,53.2,23.4,-100.00,North,-999,-999.0,-999.0,31,-99.99,,,-99.99,,2013-10-26 07:27:00,
2013-10-26 00:32:00,53.2,23.4,-100.00,North,-999,-999.0,-999.0,31,-99.99,,,-99.99,,2013-10-26 07:32:00,
2013-10-26 00:37:00,53.2,23.4,-100.00,North,-999,-999.0,-999.0,31,-99.99,,,-99.99,,2013-10-26 07:37:00,
2013-10-26 00:42:00,53.2,23.4,-100.00,North,-999,-999.0,-999.0,31,-99.99,,,-99.99,,2013-10-26 07:42:00,
2013-10-26 00:47:00,53.2,23.4,-100.00,North,-999,-999.0,-999.0,31,-99.99,,,-99.99,,2013-10-26 07:47:00,
2013-10-26 00:52:00,53.1,23.2,-100.00,North,-999,-999.0,-999.0,31,-99.99,,,-99.99,,2013-10-26 07:52:00,
2013-10-26 00:57:00,53.1,23.2,-100.00,North,-999,-999.0,-999.0,31,-99.99,,,-99.99,,2013-10-26 07:57:00,
2013-10-26 01:17:00,53.1,22.5,-100.00,North,-999,-999.0,-999.0,30,-99.99,,,-99.99,,2013-10-26 08:17:00,
2013-10-26 01:22:00,53.1,22.5,-100.00,North,-999,-999.0,-999.0,30,-99.99,,,-99.99,,2013-10-26 08:22:00,
2013-10-26 01:27:00,53.1,22.5,-100.00,North,-999,-999.0,-999.0,30,-99.99,,,-99.99,,2013-10-26 08:27:00,
2013-10-26 01:32:00,53.1,22.5,-100.00,North,-999,-999.0,-999.0,30,-99.99,,,-99.99,,2013-10-26 08:32:00,
2013-10-26 01:37:00,53.1,22.5,-100.00,North,-999,-999.0,-999.0,30,-99.99,,,-99.99,,2013-10-26 08:37:00,
2013-10-26 01:42:00,53.1,22.5,-100.00,North,-999,-999.0,-999.0,30,-99.99,,,-99.99,,2013-10-26 08:42:00,
2013-10-26 01:47:00,53.1,22.5,-100.00,North,-999,-999.0,-999.0,30,-99.99,,,-99.99,,2013-10-26 08:47:00,
2013-10-26 01:52:00,53.1,22.5,-100.00,North,-999,-999.0,-999.0,30,-99.99,,,-99.99,,2013-10-26 08:52:00,
2013-10-26 01:57:00,53.1,22.5,-100.00,North,-999,-999.0,-999.0,30,-99.99,,,-99.99,,2013-10-26 08:57:00,
2013-10-26 02:17:00,52.9,22.3,-100.00,North,-999,-999.0,-999.0,30,-99.99,,,-99.99,,2013-10-26 09:17:00,
2013-10-26 02:22:00,53.1,22.5,-100.00,North,-999,-999.0,-999.0,30,-99.99,,,-99.99,,2013-10-26 09:22:00,
2013-10-26 02:27:00,53.1,22.5,-100.00,North,-999,-999.0,-999.0,30,-99.99,,,-99.99,,2013-10-26 09:27:00,
2013-10-26 02:32:00,53.1,22.5,-100.00,North,-999,-999.0,-999.0,30,-99.99,,,-99.99,,2013-10-26 09:32:00,
2013-10-26 02:37:00,52.9,22.3,-100.00,North,-999,-999.0,-999.0,30,-99.99,,,-99.99,,2013-10-26 09:37:00,
2013-10-26 02:42:00,52.9,22.3,-100.00,North,-999,-999.0,-999.0,30,-99.99,,,-99.99,,2013-10-26 09:42:00,
2013-10-26 02:47:00,52.9,22.3,-100.00,North,-999,-999.0,-999.0,30,-99.99,,,-99.99,,2013-10-26 09:47:00,
2013-10-26 02:52:00,52.9,22.3,-100.00,North,-999,-999.0,-999.0,30,-99.99,,,-99.99,,2013-10-26 09:52:00,
2013-10-26 02:57:00,52.9,22.3,-100.00,North,-999,-999.0,-999.0,30,-99.99,,,-99.99,,2013-10-26 09:57:00,
2013-10-26 03:17:00,52.7,22.2,-100.00,North,-999,-999.0,-999.0,30,-99.99,,,-99.99,,2013-10-26 10:17:00,
2013-10-26 03:22:00,52.7,22.2,-100.00,North,-999,-999.0,-999.0,30,-99.99,,,-99.99,,2013-10-26 10:22:00,
2013-10-26 03:27:00,52.7,22.2,-100.00,North,-999,-999.0,-999.0,30,-99.99,,,-99.99,,2013-10-26 10:27:00,
2013-10-26 03:37:00,52.7,22.2,-100.00,North,-999,-999.0,-999.0,30,-99.99,,,-99.99,,2013-10-26 10:37:00,
2013-10-26 03:42:00,52.7,22.2,-100.00,North,-999,-999.0,-999.0,30,-99.99,,,-99.99,,2013-10-26 10:42:00,
2013-10-26 03:47:00,52.5,22.0,-100.00,North,-999,-999.0,-999.0,30,-99.99,,,-99.99,,2013-10-26 10:47:00,
2013-10-26 03:52:00,52.5,22.0,-100.00,North,-999,-999.0,-999.0,30,-99.99,,,-99.99,,2013-10-26 10:52:00,
2013-10-26 03:57:00,52.7,22.2,-100.00,North,-999,-999.0,-999.0,30,-99.99,,,-99.99,,2013-10-26 10:57:00,
2013-10-26 04:02:00,52.7,22.2,-100.00,North,-999,-999.0,-999.0,30,-99.99,,,-99.99,,2013-10-26 11:02:00,
2013-10-26 04:07:00,52.5,22.0,-100.00,North,-999,-999.0,-999.0,30,-99.99,,,-99.99,,2013-10-26 11:07:00,
2013-10-26 04:12:00,52.5,22.0,-100.00,North,-999,-999.0,-999.0,30,-99.99,,,-99.99,,2013-10-26 11:12:00,
2013-10-26 04:17:00,52.5,22.0,-100.00,North,-999,-999.0,-999.0,30,-99.99,,,-99.99,,2013-10-26 11:17:00,
2013-10-26 04:22:00,52.5,22.0,-100.00,North,-999,-999.0,-999.0,30,-99.99,,,-99.99,,2013-10-26 11:22:00,
2013-10-26 04:27:00,52.7,22.2,-100.00,North,-999,-999.0,-999.0,30,-99.99,,,-99.99,,2013-10-26 11:27:00,
2013-10-26 04:32:00,52.7,21.8,-100.00,North,-999,-999.0,-999.0,29,-99.99,,,-99.99,,2013-10-26 11:32:00,
2013-10-26 04:37:00,52.9,21.5,-100.00,North,-999,-999.0,-999.0,29,-99.99,,,-99.99,,2013-10-26 11:37:00,
2013-10-26 04:42:00,52.9,21.5,-100.00,North,-999,-999.0,-999.0,29,-99.99,,,-99.99,,2013-10-26 11:42:00,
2013-10-26 04:47:00,52.9,21.5,-100.00,North,-999,-999.0,-999.0,29,-99.99,,,-99.99,,2013-10-26 11:47:00,
2013-10-26 04:52:00,52.9,21.5,-100.00,North,-999,-999.0,-999.0,29,-99.99,,,-99.99,,2013-10-26 11:52:00,
2013-10-26 04:57:00,52.9,21.5,-100.00,North,-999,-999.0,-999.0,29,-99.99,,,-99.99,,2013-10-26 11:57:00,
2013-10-26 05:02:00,52.9,21.5,-100.00,North,-999,-999.0,-999.0,29,-99.99,,,-99.99,,2013-10-26 12:02:00,
2013-10-26 05:07:00,52.7,21.4,-100.00,North,-999,-999.0,-999.0,29,-99.99,,,-99.99,,2013-10-26 12:07:00,
2013-10-26 05:12:00,52.5,21.2,-100.00,North,-999,-999.0,-999.0,29,-99.99,,,-99.99,,2013-10-26 12:12:00,
2013-10-26 05:17:00,52.5,21.2,-100.00,North,-999,-999.0,-999.0,29,-99.99,,,-99.99,,2013-10-26 12:17:00,
2013-10-26 05:22:00,52.5,21.2,-100.00,North,-999,-999.0,-999.0,29,-99.99,,,-99.99,,2013-10-26 12:22:00,
2013-10-26 05:27:00,52.7,21.4,-100.00,North,-999,-999.0,-999.0,29,-99.99,,,-99.99,,2013-10-26 12:27:00,
2013-10-26 05:32:00,52.5,21.2,-100.00,North,-999,-999.0,-999.0,29,-99.99,,,-99.99,,2013-10-26 12:32:00,
2013-10-26 05:37:00,52.5,21.2,-100.00,North,-999,-999.0,-999.0,29,-99.99,,,-99.99,,2013-10-26 12:37:00,
2013-10-26 05:42:00,52.5,21.2,-100.00,North,-999,-999.0,-999.0,29,-99.99,,,-99.99,,2013-10-26 12:42:00,
2013-10-26 05:47:00,52.5,21.2,-100.00,North,-999,-999.0,-999.0,29,-99.99,,,-99.99,,2013-10-26 12:47:00,
2013-10-26 05:52:00,52.5,21.2,-100.00,North,-999,-999.0,-999.0,29,-99.99,,,-99.99,,2013-10-26 12:52:00,
2013-10-26 05:57:00,52.5,21.2,-100.00,North,-999,-999.0,-999.0,29,-99.99,,,-99.99,,2013-10-26 12:57:00,
2013-10-26 06:02:00,52.3,21.0,-100.00,North,-999,-999.0,-999.0,29,-99.99,,,-99.99,,2013-10-26 13:02:00,
2013-10-26 06:07:00,52.3,21.0,-100.00,North,-999,-999.0,-999.0,29,-99.99,,,-99.99,,2013-10-26 13:07:00,
2013-10-26 06:12:00,52.3,21.0,-100.00,North,-999,-999.0,-999.0,29,-99.99,,,-99.99,,2013-10-26 13:12:00,
2013-10-26 06:17:00,52.2,20.9,-100.00,North,-999,-999.0,-999.0,29,-99.99,,,-99.99,,2013-10-26 13:17:00,
2013-10-26 06:22:00,52.2,20.9,-100.00,North,-999,-999.0,-999.0,29,-99.99,,,-99.99,,2013-10-26 13:22:00,
2013-10-26 06:27:00,52.2,20.9,-100.00,North,-999,-999.0,-999.0,29,-99.99,,,-99.99,,2013-10-26 13:27:00,
2013-10-26 06:32:00,52.2,20.9,-100.00,North,-999,-999.0,-999.0,29,-99.99,,,-99.99,,2013-10-26 13:32:00,
2013-10-26 06:37:00,52.0,20.7,-100.00,North,-999,-999.0,-999.0,29,-99.99,,,-99.99,,2013-10-26 13:37:00,
2013-10-26 06:42:00,52.0,20.7,-100.00,North,-999,-999.0,-999.0,29,-99.99,,,-99.99,,2013-10-26 13:42:00,
2013-10-26 06:47:00,52.0,19.9,-100.00,North,-999,-999.0,-999.0,28,-99.99,,,-99.99,,2013-10-26 13:47:00,
2013-10-26 06:52:00,51.9,19.8,-100.00,North,-999,-999.0,-999.0,28,-99.99,,,-99.99,,2013-10-26 13:52:00,
2013-10-26 06:57:00,51.8,19.7,-100.00,North,-999,-999.0,-999.0,28,-99.99,,,-99.99,,2013-10-26 13:57:00,
2013-10-26 07:02:00,51.8,19.7,-100.00,North,-999,-999.0,-999.0,28,-99.99,,,-99.99,,2013-10-26 14:02:00,
2013-10-26 07:07:00,51.8,19.7,-100.00,North,-999,-999.0,-999.0,28,-99.99,,,-99.99,,2013-10-26 14:07:00,
2013-10-26 07:12:00,52.0,19.9,-100.00,North,-999,-999.0,-999.0,28,-99.99,,,-99.99,,2013-10-26 14:12:00,
2013-10-26 07:17:00,52.0,19.9,-100.00,North,-999,-999.0,-999.0,28,-99.99,,,-99.99,,2013-10-26 14:17:00,
2013-10-26 07:22:00,52.2,20.1,-100.00,North,-999,-999.0,-999.0,28,-99.99,,,-99.99,,2013-10-26 14:22:00,
2013-10-26 07:27:00,52.2,20.1,-100.00,North,-999,-999.0,-999.0,28,-99.99,,,-99.99,,2013-10-26 14:27:00,
2013-10-26 07:32:00,52.2,20.1,-100.00,North,-999,-999.0,-999.0,28,-99.99,,,-99.99,,2013-10-26 14:32:00,
2013-10-26 07:37:00,52.3,20.2,-100.00,North,-999,-999.0,-999.0,28,-99.99,,,-99.99,,2013-10-26 14:37:00,
2013-10-26 07:42:00,52.3,20.2,-100.00,North,-999,-999.0,-999.0,28,-99.99,,,-99.99,,2013-10-26 14:42:00,
2013-10-26 07:47:00,52.5,20.4,-100.00,North,-999,-999.0,-999.0,28,-99.99,,,-99.99,,2013-10-26 14:47:00,
2013-10-26 07:52:00,52.5,20.4,-100.00,North,-999,-999.0,-999.0,28,-99.99,,,-99.99,,2013-10-26 14:52:00,
2013-10-26 07:57:00,52.6,20.4,-100.00,North,-999,-999.0,-999.0,28,-99.99,,,-99.99,,2013-10-26 14:57:00,
2013-10-26 08:02:00,52.9,20.7,-100.00,North,-999,-999.0,-999.0,28,-99.99,,,-99.99,,2013-10-26 15:02:00,
2013-10-26 08:07:00,53.1,20.8,-100.00,North,-999,-999.0,-999.0,28,-99.99,,,-99.99,,2013-10-26 15:07:00,
2013-10-26 08:12:00,53.1,20.8,-100.00,North,-999,-999.0,-999.0,28,-99.99,,,-99.99,,2013-10-26 15:12:00,
2013-10-26 08:17:00,53.2,21.0,-100.00,North,-999,-999.0,-999.0,28,-99.99,,,-99.99,,2013-10-26 15:17:00,
2013-10-26 08:22:00,53.3,21.1,-100.00,North,-999,-999.0,-999.0,28,-99.99,,,-99.99,,2013-10-26 15:22:00,
2013-10-26 08:27:00,53.6,21.3,-100.00,North,-999,-999.0,-999.0,28,-99.99,,,-99.99,,2013-10-26 15:27:00,
2013-10-26 08:32:00,53.7,21.4,-100.00,North,-999,-999.0,-999.0,28,-99.99,,,-99.99,,2013-10-26 15:32:00,
2013-10-26 08:37:00,53.8,21.5,-100.00,North,-999,-999.0,-999.0,28,-99.99,,,-99.99,,2013-10-26 15:37:00,
2013-10-26 08:42:00,54.1,21.8,-100.00,North,-999,-999.0,-999.0,28,-99.99,,,-99.99,,2013-10-26 15:42:00,
2013-10-26 08:47:00,54.1,21.8,-100.00,North,-999,-999.0,-999.0,28,-99.99,,,-99.99,,2013-10-26 15:47:00,
2013-10-26 08:52:00,54.4,22.0,-100.00,North,-999,-999.0,-999.0,28,-99.99,,,-99.99,,2013-10-26 15:52:00,
2013-10-26 08:57:00,54.5,22.1,-100.00,North,-999,-999.0,-999.0,28,-99.99,,,-99.99,,2013-10-26 15:57:00,
2013-10-26 09:17:00,55.4,22.0,-100.00,North,-999,-999.0,-999.0,27,-99.99,,,-99.99,,2013-10-26 16:17:00,
2013-10-26 09:22:00,55.4,22.0,-100.00,North,-999,-999.0,-999.0,27,-99.99,,,-99.99,,2013-10-26 16:22:00,
2013-10-26 09:27:00,55.6,22.1,-100.00,North,-999,-999.0,-999.0,27,-99.99,,,-99.99,,2013-10-26 16:27:00,
2013-10-26 09:32:00,55.9,22.5,-100.00,North,-999,-999.0,-999.0,27,-99.99,,,-99.99,,2013-10-26 16:32:00,
2013-10-26 09:37:00,55.9,22.5,-100.00,North,-999,-999.0,-999.0,27,-99.99,,,-99.99,,2013-10-26 16:37:00,
2013-10-26 09:42:00,56.3,22.8,-100.00,North,-999,-999.0,-999.0,27,-99.99,,,-99.99,,2013-10-26 16:42:00,
2013-10-26 09:47:00,56.3,22.8,-100.00,North,-999,-999.0,-999.0,27,-99.99,,,-99.99,,2013-10-26 16:47:00,
2013-10-26 09:52:00,56.5,22.9,-100.00,North,-999,-999.0,-999.0,27,-99.99,,,-99.99,,2013-10-26 16:52:00,
2013-10-26 09:57:00,56.7,23.1,-100.00,North,-999,-999.0,-999.0,27,-99.99,,,-99.99,,2013-10-26 16:57:00,
2013-10-26 10:02:00,56.8,23.2,-100.00,North,-999,-999.0,-999.0,27,-99.99,,,-99.99,,2013-10-26 17:02:00,
2013-10-26 10:07:00,56.9,23.3,-100.00,North,-999,-999.0,-999.0,27,-99.99,,,-99.99,,2013-10-26 17:07:00,
2013-10-26 10:12:00,57.0,23.4,-100.00,North,-999,-999.0,-999.0,27,-99.99,,,-99.99,,2013-10-26 17:12:00,
2013-10-26 10:17:00,57.4,23.7,-100.00,North,-999,-999.0,-999.0,27,-99.99,,,-99.99,,2013-10-26 17:17:00,
2013-10-26 10:22:00,57.9,24.1,-100.00,North,-999,-999.0,-999.0,27,-99.99,,,-99.99,,2013-10-26 17:22:00,
2013-10-26 10:27:00,57.9,24.1,-100.00,North,-999,-999.0,-999.0,27,-99.99,,,-99.99,,2013-10-26 17:27:00,
2013-10-26 10:32:00,57.9,24.1,-100.00,North,-999,-999.0,-999.0,27,-99.99,,,-99.99,,2013-10-26 17:32:00,
2013-10-26 10:37:00,59.0,24.2,-100.00,North,-999,-999.0,-999.0,26,-99.99,,,-99.99,,2013-10-26 17:37:00,
2013-10-26 10:42:00,59.0,25.1,-100.00,North,-999,-999.0,-999.0,27,-99.99,,,-99.99,,2013-10-26 17:42:00,
2013-10-26 10:47:00,58.9,25.0,-100.00,North,-999,-999.0,-999.0,27,-99.99,,,-99.99,,2013-10-26 17:47:00,
2013-10-26 10:52:00,59.7,24.8,-100.00,North,-999,-999.0,-999.0,26,-99.99,,,-99.99,,2013-10-26 17:52:00,
2013-10-26 10:57:00,60.1,25.1,-100.00,North,-999,-999.0,-999.0,26,-99.99,,,-99.99,,2013-10-26 17:57:00,
2013-10-26 11:02:00,60.2,25.2,-100.00,North,-999,-999.0,-999.0,26,-99.99,,,-99.99,,2013-10-26 18:02:00,
2013-10-26 11:07:00,59.9,24.9,-100.00,North,-999,-999.0,-999.0,26,-99.99,,,-99.99,,2013-10-26 18:07:00,
2013-10-26 11:12:00,59.9,24.9,-100.00,North,-999,-999.0,-999.0,26,-99.99,,,-99.99,,2013-10-26 18:12:00,
2013-10-26 11:17:00,60.2,25.2,-100.00,North,-999,-999.0,-999.0,26,-99.99,,,-99.99,,2013-10-26 18:17:00,
2013-10-26 11:22:00,60.8,25.7,-100.00,North,-999,-999.0,-999.0,26,-99.99,,,-99.99,,2013-10-26 18:22:00,
2013-10-26 11:27:00,60.6,25.6,-100.00,North,-999,-999.0,-999.0,26,-99.99,,,-99.99,,2013-10-26 18:27:00,
2013-10-26 11:32:00,61.5,26.3,-100.00,North,-999,-999.0,-999.0,26,-99.99,,,-99.99,,2013-10-26 18:32:00,
2013-10-26 11:37:00,62.2,26.9,-100.00,North,-999,-999.0,-999.0,26,-99.99,,,-99.99,,2013-10-26 18:37:00,
2013-10-26 11:42:00,62.1,26.8,-100.00,North,-999,-999.0,-999.0,26,-99.99,,,-99.99,,2013-10-26 18:42:00,
2013-10-26 11:47:00,61.8,26.5,-100.00,North,-999,-999.0,-999.0,26,-99.99,,,-99.99,,2013-10-26 18:47:00,
2013-10-26 11:52:00,62.2,26.9,-100.00,North,-999,-999.0,-999.0,26,-99.99,,,-99.99,,2013-10-26 18:52:00,
2013-10-26 11:57:00,62.8,26.4,-100.00,North,-999,-999.0,-999.0,25,-99.99,,,-99.99,,2013-10-26 18:57:00,
2013-10-26 12:02:00,62.8,27.4,-100.00,North,-999,-999.0,-999.0,26,-99.99,,,-99.99,,2013-10-26 19:02:00,
2013-10-26 12:07:00,62.6,26.8,-100.00,North,-999,-999.0,-999.0,25,-99.99,,,-99.99,,2013-10-26 19:07:00,
2013-10-26 12:12:00,63.3,26.9,-100.00,North,-999,-999.0,-999.0,25,-99.99,,,-99.99,,2013-10-26 19:12:00,
2013-10-26 12:17:00,63.7,27.2,-100.00,North,-999,-999.0,-999.0,25,-99.99,,,-99.99,,2013-10-26 19:17:00,
2013-10-26 12:22:00,64.0,27.5,-100.00,North,-999,-999.0,-999.0,25,-99.99,,,-99.99,,2013-10-26 19:22:00,
2013-10-26 12:27:00,63.7,27.2,-100.00,North,-999,-999.0,-999.0,25,-99.99,,,-99.99,,2013-10-26 19:27:00,
2013-10-26 12:32:00,63.6,27.1,-100.00,North,-999,-999.0,-999.0,25,-99.99,,,-99.99,,2013-10-26 19:32:00,
2013-10-26 12:37:00,64.0,27.5,-100.00,North,-999,-999.0,-999.0,25,-99.99,,,-99.99,,2013-10-26 19:37:00,
2013-10-26 12:42:00,63.9,27.4,-100.00,North,-999,-999.0,-999.0,25,-99.99,,,-99.99,,2013-10-26 19:42:00,
2013-10-26 12:47:00,64.0,27.5,-100.00,North,-999,-999.0,-999.0,25,-99.99,,,-99.99,,2013-10-26 19:47:00,
2013-10-26 12:52:00,64.2,27.7,-100.00,North,-999,-999.0,-999.0,25,-99.99,,,-99.99,,2013-10-26 19:52:00,
2013-10-26 12:57:00,64.1,27.6,-100.00,North,-999,-999.0,-999.0,25,-99.99,,,-99.99,,2013-10-26 19:57:00,
2013-10-26 13:02:00,64.4,27.8,-100.00,North,-999,-999.0,-999.0,25,-99.99,,,-99.99,,2013-10-26 20:02:00,
2013-10-26 13:07:00,64.4,27.8,-100.00,North,-999,-999.0,-999.0,25,-99.99,,,-99.99,,2013-10-26 20:07:00,
2013-10-26 13:12:00,64.4,27.8,-100.00,North,-999,-999.0,-999.0,25,-99.99,,,-99.99,,2013-10-26 20:12:00,
2013-10-26 13:17:00,63.9,27.4,-100.00,North,-999,-999.0,-999.0,25,-99.99,,,-99.99,,2013-10-26 20:17:00,
2013-10-26 13:22:00,64.3,27.7,-100.00,North,-999,-999.0,-999.0,25,-99.99,,,-99.99,,2013-10-26 20:22:00,
2013-10-26 13:27:00,64.4,27.8,-100.00,North,-999,-999.0,-999.0,25,-99.99,,,-99.99,,2013-10-26 20:27:00,
2013-10-26 13:32:00,64.4,27.8,-100.00,North,-999,-999.0,-999.0,25,-99.99,,,-99.99,,2013-10-26 20:32:00,
2013-10-26 13:37:00,64.8,28.1,-100.00,North,-999,-999.0,-999.0,25,-99.99,,,-99.99,,2013-10-26 20:37:00,
2013-10-26 13:42:00,64.6,28.0,-100.00,North,-999,-999.0,-999.0,25,-99.99,,,-99.99,,2013-10-26 20:42:00,
2013-10-26 13:47:00,64.9,28.3,-100.00,North,-999,-999.0,-999.0,25,-99.99,,,-99.99,,2013-10-26 20:47:00,
2013-10-26 13:52:00,64.6,28.0,-100.00,North,-999,-999.0,-999.0,25,-99.99,,,-99.99,,2013-10-26 20:52:00,
2013-10-26 13:57:00,64.4,27.8,-100.00,North,-999,-999.0,-999.0,25,-99.99,,,-99.99,,2013-10-26 20:57:00,
2013-10-26 14:02:00,64.3,27.7,-100.00,North,-999,-999.0,-999.0,25,-99.99,,,-99.99,,2013-10-26 21:02:00,
2013-10-26 14:07:00,64.0,27.5,-100.00,North,-999,-999.0,-999.0,25,-99.99,,,-99.99,,2013-10-26 21:07:00,
2013-10-26 14:12:00,64.0,27.4,-100.00,North,-999,-999.0,-999.0,25,-99.99,,,-99.99,,2013-10-26 21:12:00,
2013-10-26 14:17:00,64.0,27.5,-100.00,North,-999,-999.0,-999.0,25,-99.99,,,-99.99,,2013-10-26 21:17:00,
2013-10-26 14:22:00,64.0,27.5,-100.00,North,-999,-999.0,-999.0,25,-99.99,,,-99.99,,2013-10-26 21:22:00,
2013-10-26 14:27:00,64.1,27.6,-100.00,North,-999,-999.0,-999.0,25,-99.99,,,-99.99,,2013-10-26 21:27:00,
2013-10-26 14:32:00,64.4,27.8,-100.00,North,-999,-999.0,-999.0,25,-99.99,,,-99.99,,2013-10-26 21:32:00,
2013-10-26 14:37:00,64.4,27.8,-100.00,North,-999,-999.0,-999.0,25,-99.99,,,-99.99,,2013-10-26 21:37:00,
2013-10-26 14:42:00,64.2,28.6,-100.00,North,-999,-999.0,-999.0,26,-99.99,,,-99.99,,2013-10-26 21:42:00,
2013-10-26 14:47:00,63.9,28.3,-100.00,North,-999,-999.0,-999.0,26,-99.99,,,-99.99,,2013-10-26 21:47:00,
2013-10-26 14:52:00,63.7,28.2,-100.00,North,-999,-999.0,-999.0,26,-99.99,,,-99.99,,2013-10-26 21:52:00,
2013-10-26 14:57:00,63.7,28.2,-100.00,North,-999,-999.0,-999.0,26,-99.99,,,-99.99,,2013-10-26 21:57:00,
2013-10-26 15:17:00,64.1,28.5,-100.00,North,-999,-999.0,-999.0,26,-99.99,,,-99.99,,2013-10-26 22:17:00,
2013-10-26 15:22:00,63.9,28.3,-100.00,North,-999,-999.0,-999.0,26,-99.99,,,-99.99,,2013-10-26 22:22:00,
2013-10-26 15:27:00,63.7,28.2,-100.00,North,-999,-999.0,-999.0,26,-99.99,,,-99.99,,2013-10-26 22:27:00,
2013-10-26 15:32:00,63.9,28.3,-100.00,North,-999,-999.0,-999.0,26,-99.99,,,-99.99,,2013-10-26 22:32:00,
2013-10-26 15:37:00,64.0,28.4,-100.00,North,-999,-999.0,-999.0,26,-99.99,,,-99.99,,2013-10-26 22:37:00,
2013-10-26 15:42:00,63.7,28.2,-100.00,North,-999,-999.0,-999.0,26,-99.99,,,-99.99,,2013-10-26 22:42:00,
2013-10-26 15:47:00,63.7,28.2,-100.00,North,-999,-999.0,-999.0,26,-99.99,,,-99.99,,2013-10-26 22:47:00,
2013-10-26 15:52:00,63.7,28.2,-100.00,North,-999,-999.0,-999.0,26,-99.99,,,-99.99,,2013-10-26 22:52:00,
2013-10-26 15:57:00,63.5,28.0,-100.00,North,-999,-999.0,-999.0,26,-99.99,,,-99.99,,2013-10-26 22:57:00,
2013-10-26 16:02:00,63.5,28.0,-100.00,North,-999,-999.0,-999.0,26,-99.99,,,-99.99,,2013-10-26 23:02:00,
2013-10-26 16:07:00,63.5,28.0,-100.00,North,-999,-999.0,-999.0,26,-99.99,,,-99.99,,2013-10-26 23:07:00,
2013-10-26 16:12:00,63.4,27.9,-100.00,North,-999,-999.0,-999.0,26,-99.99,,,-99.99,,2013-10-26 23:12:00,
2013-10-26 16:17:00,63.1,27.7,-100.00,North,-999,-999.0,-999.0,26,-99.99,,,-99.99,,2013-10-26 23:17:00,
2013-10-26 16:22:00,63.1,27.6,-100.00,North,-999,-999.0,-999.0,26,-99.99,,,-99.99,,2013-10-26 23:22:00,
2013-10-26 16:27:00,63.0,27.5,-100.00,North,-999,-999.0,-999.0,26,-99.99,,,-99.99,,2013-10-26 23:27:00,
2013-10-26 16:32:00,62.8,27.4,-100.00,North,-999,-999.0,-999.0,26,-99.99,,,-99.99,,2013-10-26 23:32:00,
2013-10-26 16:37:00,62.8,27.4,-100.00,North,-999,-999.0,-999.0,26,-99.99,,,-99.99,,2013-10-26 23:37:00,
2013-10-26 16:42:00,62.7,27.3,-100.00,North,-999,-999.0,-999.0,26,-99.99,,,-99.99,,2013-10-26 23:42:00,
2013-10-26 16:47:00,62.6,27.2,-100.00,North,-999,-999.0,-999.0,26,-99.99,,,-99.99,,2013-10-26 23:47:00,
2013-10-26 16:52:00,62.4,28.0,-100.00,North,-999,-999.0,-999.0,27,-99.99,,,-99.99,,2013-10-26 23:52:00,
2013-10-26 16:57:00,62.5,27.6,-100.00,North,-999,-999.0,-999.0,26,-99.99,,,-99.99,,2013-10-26 23:57:00,
2013-10-26 17:02:00,62.0,27.6,-100.00,North,-999,-999.0,-999.0,27,-99.99,,,-99.99,,2013-10-27 00:02:00,
2013-10-26 17:07:00,61.7,26.5,-100.00,North,-999,-999.0,-999.0,26,-99.99,,,-99.99,,2013-10-27 00:07:00,
2013-10-26 17:12:00,61.7,26.5,-100.00,North,-999,-999.0,-999.0,26,-99.99,,,-99.99,,2013-10-27 00:12:00,
2013-10-26 17:17:00,61.5,26.3,-100.00,North,-999,-999.0,-999.0,26,-99.99,,,-99.99,,2013-10-27 00:17:00,
2013-10-26 17:22:00,61.3,26.2,-100.00,North,-999,-999.0,-999.0,26,-99.99,,,-99.99,,2013-10-27 00:22:00,
2013-10-26 17:27:00,61.0,25.9,-100.00,North,-999,-999.0,-999.0,26,-99.99,,,-99.99,,2013-10-27 00:27:00,
2013-10-26 17:32:00,61.0,25.9,-100.00,North,-999,-999.0,-999.0,26,-99.99,,,-99.99,,2013-10-27 00:32:00,
2013-10-26 17:37:00,60.8,25.7,-100.00,North,-999,-999.0,-999.0,26,-99.99,,,-99.99,,2013-10-27 00:37:00,
2013-10-26 17:42:00,60.6,25.6,-100.00,North,-999,-999.0,-999.0,26,-99.99,,,-99.99,,2013-10-27 00:42:00,
2013-10-26 17:47:00,60.4,25.4,-100.00,North,-999,-999.0,-999.0,26,-99.99,,,-99.99,,2013-10-27 00:47:00,
2013-10-26 17:52:00,60.1,25.1,-100.00,North,-999,-999.0,-999.0,26,-99.99,,,-99.99,,2013-10-27 00:52:00,
2013-10-26 17:57:00,59.9,24.9,-100.00,North,-999,-999.0,-999.0,26,-99.99,,,-99.99,,2013-10-27 00:57:00,
2013-10-26 18:02:00,59.6,24.7,-100.00,North,-999,-999.0,-999.0,26,-99.99,,,-99.99,,2013-10-27 01:02:00,
2013-10-26 18:07:00,59.2,24.3,-100.00,North,-999,-999.0,-999.0,26,-99.99,,,-99.99,,2013-10-27 01:07:00,
2013-10-26 18:12:00,58.8,24.9,-100.00,North,-999,-999.0,-999.0,27,-99.99,,,-99.99,,2013-10-27 01:12:00,
2013-10-26 18:17:00,58.6,24.8,-100.00,North,-999,-999.0,-999.0,27,-99.99,,,-99.99,,2013-10-27 01:17:00,
2013-10-26 18:22:00,58.3,24.5,-100.00,North,-999,-999.0,-999.0,27,-99.99,,,-99.99,,2013-10-27 01:22:00,
2013-10-26 18:27:00,57.9,24.1,-100.00,North,-999,-999.0,-999.0,27,-99.99,,,-99.99,,2013-10-27 01:27:00,
2013-10-26 18:32:00,57.9,24.1,-100.00,North,-999,-999.0,-999.0,27,-99.99,,,-99.99,,2013-10-27 01:32:00,
2013-10-26 18:37:00,57.7,24.0,-100.00,North,-999,-999.0,-999.0,27,-99.99,,,-99.99,,2013-10-27 01:37:00,
2013-10-26 18:42:00,57.6,23.8,-100.00,North,-999,-999.0,-999.0,27,-99.99,,,-99.99,,2013-10-27 01:42:00,
2013-10-26 18:47:00,57.4,23.7,-100.00,North,-999,-999.0,-999.0,27,-99.99,,,-99.99,,2013-10-27 01:47:00,
2013-10-26 18:52:00,57.2,23.5,-100.00,North,-999,-999.0,-999.0,27,-99.99,,,-99.99,,2013-10-27 01:52:00,
2013-10-26 18:57:00,57.0,24.2,-100.00,North,-999,-999.0,-999.0,28,-99.99,,,-99.99,,2013-10-27 01:57:00,
2013-10-26 19:02:00,57.0,24.2,-100.00,North,-999,-999.0,-999.0,28,-99.99,,,-99.99,,2013-10-27 02:02:00,
2013-10-26 19:07:00,56.8,24.1,-100.00,North,-999,-999.0,-999.0,28,-99.99,,,-99.99,,2013-10-27 02:07:00,
2013-10-26 19:12:00,56.8,24.1,-100.00,North,-999,-999.0,-999.0,28,-99.99,,,-99.99,,2013-10-27 02:12:00,
2013-10-26 19:17:00,56.7,23.9,-100.00,North,-999,-999.0,-999.0,28,-99.99,,,-99.99,,2013-10-27 02:17:00,
2013-10-26 19:22:00,56.7,23.1,-100.00,North,-999,-999.0,-999.0,27,-99.99,,,-99.99,,2013-10-27 02:22:00,
2013-10-26 19:27:00,56.7,23.1,-100.00,North,-999,-999.0,-999.0,27,-99.99,,,-99.99,,2013-10-27 02:27:00,
2013-10-26 19:32:00,56.5,22.9,-100.00,North,-999,-999.0,-999.0,27,-99.99,,,-99.99,,2013-10-27 02:32:00,
2013-10-26 19:37:00,56.5,22.9,-100.00,North,-999,-999.0,-999.0,27,-99.99,,,-99.99,,2013-10-27 02:37:00,
2013-10-26 19:42:00,56.5,22.9,-100.00,North,-999,-999.0,-999.0,27,-99.99,,,-99.99,,2013-10-27 02:42:00,
2013-10-26 19:47:00,56.5,22.9,-100.00,North,-999,-999.0,-999.0,27,-99.99,,,-99.99,,2013-10-27 02:47:00,
2013-10-26 19:52:00,56.3,22.8,-100.00,North,-999,-999.0,-999.0,27,-99.99,,,-99.99,,2013-10-27 02:52:00,
2013-10-26 19:57:00,56.3,22.8,-100.00,North,-999,-999.0,-999.0,27,-99.99,,,-99.99,,2013-10-27 02:57:00,
2013-10-26 20:02:00,56.3,22.8,-100.00,North,-999,-999.0,-999.0,27,-99.99,,,-99.99,,2013-10-27 03:02:00,
2013-10-26 20:07:00,56.2,22.7,-100.00,North,-999,-999.0,-999.0,27,-99.99,,,-99.99,,2013-10-27 03:07:00,
2013-10-26 20:12:00,56.1,22.6,-100.00,North,-999,-999.0,-999.0,27,-99.99,,,-99.99,,2013-10-27 03:12:00,
2013-10-26 20:17:00,55.9,22.5,-100.00,North,-999,-999.0,-999.0,27,-99.99,,,-99.99,,2013-10-27 03:17:00,
2013-10-26 20:22:00,55.9,22.5,-100.00,North,-999,-999.0,-999.0,27,-99.99,,,-99.99,,2013-10-27 03:22:00,
2013-10-26 20:27:00,55.8,22.3,-100.00,North,-999,-999.0,-999.0,27,-99.99,,,-99.99,,2013-10-27 03:27:00,
2013-10-26 20:32:00,55.8,22.3,-100.00,North,-999,-999.0,-999.0,27,-99.99,,,-99.99,,2013-10-27 03:32:00,
2013-10-26 20:37:00,55.6,22.1,-100.00,North,-999,-999.0,-999.0,27,-99.99,,,-99.99,,2013-10-27 03:37:00,
2013-10-26 20:42:00,55.6,22.1,-100.00,North,-999,-999.0,-999.0,27,-99.99,,,-99.99,,2013-10-27 03:42:00,
2013-10-26 20:47:00,55.4,22.0,-100.00,North,-999,-999.0,-999.0,27,-99.99,,,-99.99,,2013-10-27 03:47:00,
2013-10-26 20:52:00,55.4,22.0,-100.00,North,-999,-999.0,-999.0,27,-99.99,,,-99.99,,2013-10-27 03:52:00,
2013-10-26 20:57:00,55.4,22.0,-100.00,North,-999,-999.0,-999.0,27,-99.99,,,-99.99,,2013-10-27 03:57:00,
2013-10-26 21:17:00,55.4,21.1,-100.00,North,-999,-999.0,-999.0,26,-99.99,,,-99.99,,2013-10-27 04:17:00,
2013-10-26 21:22:00,55.4,21.1,-100.00,North,-999,-999.0,-999.0,26,-99.99,,,-99.99,,2013-10-27 04:22:00,
2013-10-26 21:27:00,55.4,21.1,-100.00,North,-999,-999.0,-999.0,26,-99.99,,,-99.99,,2013-10-27 04:27:00,
2013-10-26 21:32:00,55.4,21.1,-100.00,North,-999,-999.0,-999.0,26,-99.99,,,-99.99,,2013-10-27 04:32:00,
2013-10-26 21:37:00,55.4,21.1,-100.00,North,-999,-999.0,-999.0,26,-99.99,,,-99.99,,2013-10-27 04:37:00,
2013-10-26 21:42:00,55.4,21.1,-100.00,North,-999,-999.0,-999.0,26,-99.99,,,-99.99,,2013-10-27 04:42:00,
2013-10-26 21:47:00,55.4,21.1,-100.00,North,-999,-999.0,-999.0,26,-99.99,,,-99.99,,2013-10-27 04:47:00,
2013-10-26 21:52:00,55.4,21.1,-100.00,North,-999,-999.0,-999.0,26,-99.99,,,-99.99,,2013-10-27 04:52:00,
2013-10-26 21:57:00,55.4,21.1,-100.00,North,-999,-999.0,-999.0,26,-99.99,,,-99.99,,2013-10-27 04:57:00,
2013-10-26 22:02:00,55.4,21.1,-100.00,North,-999,-999.0,-999.0,26,-99.99,,,-99.99,,2013-10-27 05:02:00,
2013-10-26 22:07:00,55.4,21.1,-100.00,North,-999,-999.0,-999.0,26,-99.99,,,-99.99,,2013-10-27 05:07:00,
2013-10-26 22:12:00,55.4,21.1,-100.00,North,-999,-999.0,-999.0,26,-99.99,,,-99.99,,2013-10-27 05:12:00,
2013-10-26 22:17:00,55.3,21.0,-100.00,North,-999,-999.0,-999.0,26,-99.99,,,-99.99,,2013-10-27 05:17:00,
2013-10-26 22:22:00,55.3,21.0,-100.00,North,-999,-999.0,-999.0,26,-99.99,,,-99.99,,2013-10-27 05:22:00,
2013-10-26 22:27:00,55.2,20.9,-100.00,North,-999,-999.0,-999.0,26,-99.99,,,-99.99,,2013-10-27 05:27:00,
2013-10-26 22:32:00,55.2,20.9,-100.00,North,-999,-999.0,-999.0,26,-99.99,,,-99.99,,2013-10-27 05:32:00,
2013-10-26 22:37:00,55.2,20.9,-100.00,North,-999,-999.0,-999.0,26,-99.99,,,-99.99,,2013-10-27 05:37:00,
2013-10-26 22:42:00,55.2,20.9,-100.00,North,-999,-999.0,-999.0,26,-99.99,,,-99.99,,2013-10-27 05:42:00,
2013-10-26 22:47:00,55.2,20.9,-100.00,North,-999,-999.0,-999.0,26,-99.99,,,-99.99,,2013-10-27 05:47:00,
2013-10-26 22:52:00,55.1,20.9,-100.00,North,-999,-999.0,-999.0,26,-99.99,,,-99.99,,2013-10-27 05:52:00,
2013-10-26 22:57:00,55.0,20.8,-100.00,North,-999,-999.0,-999.0,26,-99.99,,,-99.99,,2013-10-27 05:57:00,
2013-10-26 23:02:00,55.0,20.8,-100.00,North,-999,-999.0,-999.0,26,-99.99,,,-99.99,,2013-10-27 06:02:00,
2013-10-26 23:07:00,55.0,20.8,-100.00,North,-999,-999.0,-999.0,26,-99.99,,,-99.99,,2013-10-27 06:07:00,
2013-10-26 23:12:00,54.9,20.6,-100.00,North,-999,-999.0,-999.0,26,-99.99,,,-99.99,,2013-10-27 06:12:00,
2013-10-26 23:17:00,54.9,20.6,-100.00,North,-999,-999.0,-999.0,26,-99.99,,,-99.99,,2013-10-27 06:17:00,
2013-10-26 23:22:00,55.0,20.8,-100.00,North,-999,-999.0,-999.0,26,-99.99,,,-99.99,,2013-10-27 06:22:00,
2013-10-26 23:27:00,55.0,20.8,-100.00,North,-999,-999.0,-999.0,26,-99.99,,,-99.99,,2013-10-27 06:27:00,
2013-10-26 23:32:00,55.0,20.7,-100.00,North,-999,-999.0,-999.0,26,-99.99,,,-99.99,,2013-10-27 06:32:00,
2013-10-26 23:37:00,54.9,20.6,-100.00,North,-999,-999.0,-999.0,26,-99.99,,,-99.99,,2013-10-27 06:37:00,
2013-10-26 23:42:00,54.7,20.5,-100.00,North,-999,-999.0,-999.0,26,-99.99,,,-99.99,,2013-10-27 06:42:00,
2013-10-26 23:47:00,54.7,20.5,-100.00,North,-999,-999.0,-999.0,26,-99.99,,,-99.99,,2013-10-27 06:47:00,
2013-10-26 23:52:00,54.5,20.3,-100.00,North,-999,-999.0,-999.0,26,-99.99,,,-99.99,,2013-10-27 06:52:00,
2013-10-26 23:57:00,54.5,20.3,-100.00,North,-999,-999.0,-999.0,26,-99.99,,,-99.99,,2013-10-27 06:57:00,